User: anonymous
Location: Unspecified
(0.0000°N, 0.0000°E)
Time: 13:20:20
(UTC+00:00)
Language:

Tiros 10 - Orbit

View from above orbital plane
View from above orbital plane
View from above satellite
View from above satellite

Ground track
Ground track

The orbit data is extracted from the following two-line orbital elements,

1 01430U 65051A   14109.65718432  .00000355  00000-0  12355-3 0  5668
2 01430 098.0854 310.7962 0057692 151.4874 208.9492 14.39873147556941
Epoch (UTC): 19 April 2014 15:46:20
Eccentricity: 0.0057692
inclination: 98.0854°
perigee height: 718 km
apogee height: 800 km
right ascension of ascending node: 310.7962°
argument of perigee: 151.4874°
revolutions per day: 14.39873147
mean anomaly at epoch: 208.9492°
orbit number at epoch: 55694

The dashed part of the orbit path shows where the satellite is in the earth's shadow,  

DLR